Dati Storici

Data ora Umidita' aria (%) Temperatura aria (°C) Rad globale (W/m²) Gonioanemometro (°) Tacoanemometro (m/s) Pioggia (mm)
18-06-2020 09:30 68 % 22.807 211.09 2.265 0 0
18-06-2020 09:20 69.8 % 22.878 161.811 0.322 0 0
18-06-2020 09:10 70.5 % 22.129 180.645 1.293 0 0
18-06-2020 09:00 70.1 % 22.09 203.276 1.931 0 0
18-06-2020 08:50 69.3 % 21.909 127.262 4 0 0
18-06-2020 08:40 68.8 % 21.436 97.51 3.207 0 0
18-06-2020 08:30 72.6 % 21.492 219.726 1.714 0 0
18-06-2020 08:20 74 % 21.349 276.7 0.59 0 0
18-06-2020 08:10 78.3 % 22.106 286.095 0.37 0 0
18-06-2020 08:00 80.9 % 21.052 151.318 1.13 0 0
18-06-2020 07:50 82.3 % 21.415 -55.167 0.419 0 0
18-06-2020 07:40 84.9 % 20.798 -72.95 0.717 0 0
18-06-2020 07:30 85.5 % 20.331 -47.928 0.442 0 0
18-06-2020 07:20 87.2 % 20.404 -60.862 -0.013 0 0
18-06-2020 07:10 88.8 % 19.541 -64.748 1.02 0 0
18-06-2020 07:00 91.1 % 19.487 -40.311 0.81 0 0
18-06-2020 06:50 94 % 19.238 -52.813 -0.021 0 0
18-06-2020 06:40 94.2 % 18.946 -45.14 1.316 0 0
18-06-2020 06:30 95.7 % 18.388 -57.048 1.044 0 0
18-06-2020 06:20 97.6 % 18.126 -63.368 -0.014 0 0

I dati sono presentati in modo automatico a scopo informativo. In seguito a verifica i dati possono subire modifiche o essere invalidati e non riportati negli archivi definitivi.